Weather History for KWMC - January, 2014

Change the Weather History Date:

Thursday, January 30, 2014

  Actual Average Record
Temperature  
Mean Temperature 37 °F 32 °F  
Max Temperature 42 °F 43 °F 62 °F (1971)
Min Temperature 31 °F 21 °F -19 °F (1957)
Degree Days  
Heating Degree Days 28 33  
Month to date heating degree days 914 1048  
Since 1 July heating degree days 3902 3721  
Cooling Degree Days 0 0  
Month to date cooling degree days 0 0  
Year to date cooling degree days 0 0  
Moisture  
Dew Point 32 °F    
Average Humidity 81    
Maximum Humidity 96    
Minimum Humidity 65    
Precipitation  
Precipitation 0.09 in 0.03 in 1.10 in (1881)
Month to date precipitation 0.29 0.85  
Year to date precipitation 0.29 0.85  
Snow  
Snow T in 0.20 in 10.00 in (1893)
Month to date snowfall T 3.7  
Since 1 July snowfall 16.5 12.5  
Snow Depth 0.00 in    
Sea Level Pressure  
Sea Level Pressure 29.82 in    
Wind  
Wind Speed 6 mph (WSW)    
Max Wind Speed 13 mph    
Max Gust Speed 16 mph    
Visibility 8 miles    
Events Snow    
T = Trace of Precipitation, MM = Missing Value Source: NWS Daily Summary

Daily Weather History Graph

Daily Weather History Graph

Search for Another Location

Airport or City:

Trip Planner

Search our weather history database for the weather conditions in past years. The results will help you decide how hot, cold, wet, or windy it might be!

Date:

Astronomy

Jan. 30, 2014 Rise Set
Actual Time 7:03 AM PST 5:06 PM PST
Civil Twilight 6:34 AM PST 5:35 PM PST
Nautical Twilight 6:01 AM PST 6:08 PM PST
Astronomical Twilight 5:29 AM PST 6:40 PM PST
Moon 6:32 AM PST (1/30) 5:24 PM PST (1/30)
Length of Visible Light 11h 01m
Length of Day
10h 02m
Waning Crescent, 0% of the Moon is Illuminated
Jan 30
Waning Crescent
Jan 30
New
Feb 6
First Quarter
Feb 14
Full
Feb 22
Last Quarter

Hourly Weather History & Observations

Time (PST) Temp. Windchill Dew Point Humidity Pressure Visibility Wind Dir Wind Speed Gust Speed Precip Events Conditions
12:56 AM 37.9 °F - 33.1 °F 83% 29.84 in 10.0 mi Calm Calm - N/A   Overcast
1:56 AM 37.0 °F - 32.0 °F 82% 29.84 in 10.0 mi Calm Calm - N/A   Overcast
2:56 AM 37.9 °F 32.7 °F 34.0 °F 86% 29.83 in 10.0 mi WNW 6.9 mph - N/A   Overcast
3:56 AM 37.9 °F 35.5 °F 34.0 °F 86% 29.83 in 10.0 mi NE 3.5 mph - N/A   Overcast
4:56 AM 37.0 °F - 33.1 °F 86% 29.83 in 10.0 mi Calm Calm - N/A   Overcast
5:56 AM 36.0 °F 32.1 °F 32.0 °F 86% 29.82 in 10.0 mi NNE 4.6 mph - N/A   Mostly Cloudy
6:56 AM 35.1 °F 31.0 °F 32.0 °F 89% 29.83 in 10.0 mi NNE 4.6 mph - N/A   Clear
7:56 AM 33.1 °F 27.7 °F 32.0 °F 96% 29.86 in 10.0 mi South 5.8 mph - N/A   Partly Cloudy
8:56 AM 36.0 °F 28.5 °F 34.0 °F 93% 29.86 in 10.0 mi SSE 10.4 mph - N/A   Mostly Cloudy
9:56 AM 37.0 °F 30.4 °F 34.0 °F 89% 29.85 in 10.0 mi South 9.2 mph - N/A   Mostly Cloudy
10:56 AM 39.0 °F 36.8 °F 34.0 °F 82% 29.84 in 10.0 mi Variable 3.5 mph - N/A   Clear
11:56 AM 39.9 °F 33.4 °F 32.0 °F 73% 29.83 in 10.0 mi WSW 10.4 mph - N/A   Partly Cloudy
12:56 PM 41.0 °F 37.1 °F 30.0 °F 65% 29.81 in 10.0 mi West 5.8 mph - N/A   Clear
1:56 PM 41.0 °F 35.2 °F 30.0 °F 65% 29.79 in 10.0 mi WSW 9.2 mph - N/A   Clear
2:56 PM 41.0 °F 36.4 °F 30.0 °F 65% 29.78 in 10.0 mi WSW 6.9 mph - N/A   Clear
3:56 PM 41.0 °F 34.7 °F 30.9 °F 67% 29.79 in 10.0 mi West 10.4 mph - N/A   Clear
4:56 PM 39.0 °F 36.8 °F 30.9 °F 73% 29.80 in 10.0 mi WSW 3.5 mph - N/A   Mostly Cloudy
5:56 PM 35.1 °F - 28.9 °F 78% 29.80 in 10.0 mi Calm Calm - N/A   Clear
6:56 PM 34.0 °F 31.0 °F 30.0 °F 85% 29.81 in 10.0 mi ESE 3.5 mph - N/A   Overcast
7:56 PM 35.1 °F 27.9 °F 30.9 °F 85% 29.81 in 10.0 mi South 9.2 mph - N/A   Mostly Cloudy
8:56 PM 35.1 °F 29.3 °F 30.9 °F 85% 29.81 in 10.0 mi South 6.9 mph - N/A   Overcast
9:56 PM 34.0 °F 29.8 °F 30.9 °F 89% 29.81 in 10.0 mi SSE 4.6 mph - N/A   Overcast
10:45 PM 33.1 °F 26.9 °F 32.0 °F 96% 29.81 in 7.0 mi West 6.9 mph - 0.00 in Snow Light Snow
10:53 PM 33.8 °F 27.0 °F 32.0 °F 93% 29.81 in 2.5 mi West 8.1 mph - 0.00 in Snow Light Snow
10:56 PM 33.1 °F 25.5 °F 32.0 °F 96% 29.82 in 2.0 mi West 9.2 mph - 0.00 in Snow Light Snow
11:01 PM 32.0 °F 24.2 °F 32.0 °F 100% 29.81 in 1.2 mi West 9.2 mph - 0.01 in Snow Light Snow
11:08 PM 32.0 °F 23.6 °F 32.0 °F 100% 29.81 in 1.0 mi West 10.4 mph - 0.02 in Snow Light Snow
11:18 PM 32.0 °F 23.0 °F 32.0 °F 100% 29.81 in 0.8 mi West 11.5 mph - 0.03 in Snow Light Snow
11:40 PM 32.0 °F 24.2 °F 32.0 °F 100% 29.81 in 1.0 mi WNW 9.2 mph - 0.06 in Snow Light Snow
11:54 PM 32.0 °F 24.2 °F 32.0 °F 100% 29.81 in 0.8 mi West 9.2 mph - 0.08 in Snow Light Snow
11:55 PM 30.9 °F 22.8 °F 30.9 °F 100% 29.82 in 0.8 mi West 9.2 mph - 0.08 in Snow Light Snow